Change the Weather History Date:

Saturday, October 1, 2011

  Actual Average Record
Temperature  
Mean Temperature 69 °F -  
Max Temperature 75 °F 67 °F 84 °F (1950)
Min Temperature 63 °F 45 °F 29 °F (1963)
Cooling Degree Days 4    
Growing Degree Days 19 (Base 50)    
Moisture  
Dew Point 64 °F    
Average Humidity 91    
Maximum Humidity 100    
Minimum Humidity 73    
Precipitation  
Precipitation 0.10 in - - ()
Sea Level Pressure  
Sea Level Pressure 29.62 in    
Wind  
Wind Speed 3 mph (SSE)    
Max Wind Speed 8 mph    
Max Gust Speed -    
Visibility 9 miles    
Events Rain    
Averages and records for this station are not official NWS values.
T = Trace of Precipitation, MM = Missing Value Source: NWS Daily Summary

Daily Weather History Graph

Daily Weather History Graph

Search for Another Location

Airport or City:

Trip Planner

Search our weather history database for the weather conditions in past years. The results will help you decide how hot, cold, wet, or windy it might be!

Date:

Astronomy

Oct. 01, 2011 Rise Set
Actual Time 6:40 AM EDT 6:26 PM EDT
Civil Twilight 6:12 AM EDT 6:53 PM EDT
Nautical Twilight 5:40 AM EDT 7:26 PM EDT
Astronomical Twilight 5:07 AM EDT 7:58 PM EDT
Moon 11:48 AM EDT (10/1) 9:15 PM EDT (10/1)
Length of Visible Light 12h 41m
Length of Day
11h 45m
Waxing Crescent, 24% of the Moon is Illuminated
Oct 1
Waxing Crescent
Oct 3
First Quarter
Oct 11
Full
Oct 19
Last Quarter
Oct 26
New

Hourly Weather History & Observations

Time (EDT) Temp. Dew Point Humidity Pressure Visibility Wind Dir Wind Speed Gust Speed Precip Events Conditions
12:03 AM 66.2 °F 64.4 °F 94% 29.64 in 6.0 mi Calm Calm - N/A   Overcast
1:52 AM 66.9 °F 66.0 °F 97% 29.64 in 8.0 mi ESE 3.5 mph - N/A   Overcast
2:12 AM 66.2 °F 66.2 °F 100% 29.63 in 8.0 mi Calm Calm - N/A   Overcast
2:52 AM 66.0 °F 64.0 °F 93% 29.62 in 10.0 mi NNW 3.5 mph - N/A   Overcast
3:06 AM 66.2 °F 62.6 °F 88% 29.62 in 9.0 mi North 4.6 mph - 0.00 in Rain Light Rain
3:52 AM 64.0 °F 64.0 °F 100% 29.60 in 9.0 mi Calm Calm - 0.04 in   Overcast
4:32 AM 64.4 °F 62.6 °F 94% 29.61 in 1.8 mi WNW 6.9 mph - 0.11 in Rain Heavy Rain
4:42 AM 64.4 °F 62.6 °F 94% 29.61 in 0.8 mi Calm Calm - 0.32 in Rain Heavy Rain
4:54 AM 64.4 °F 64.4 °F 100% 29.61 in 3.0 mi Calm Calm - 0.01 in Rain Rain
5:52 AM 63.0 °F 63.0 °F 100% 29.60 in 9.0 mi Variable 3.5 mph - 0.01 in   Partly Cloudy
6:52 AM 63.0 °F 62.1 °F 97% 29.60 in 8.0 mi Calm Calm - 0.01 in Rain Light Rain
8:52 AM 63.0 °F 62.1 °F 97% 29.57 in 10.0 mi NNW 3.5 mph - 0.00 in   Mostly Cloudy
9:17 AM 64.4 °F 62.6 °F 94% 29.58 in 10.0 mi Calm Calm - N/A   Mostly Cloudy
9:32 AM 64.4 °F 62.6 °F 94% 29.58 in 10.0 mi Calm Calm - N/A   Overcast
10:52 AM 66.0 °F 64.0 °F 93% 29.59 in 10.0 mi ENE 3.5 mph - N/A   Overcast
11:52 AM 69.1 °F 64.9 °F 87% 29.59 in 10.0 mi SSE 6.9 mph - N/A   Overcast
12:13 PM 69.8 °F 64.4 °F 83% 29.59 in 10.0 mi SE 6.9 mph - 0.00 in   Overcast
12:52 PM 70.0 °F 66.0 °F 87% 29.58 in 6.0 mi ESE 4.6 mph - 0.03 in Rain Light Rain
1:08 PM 69.8 °F 66.2 °F 88% 29.58 in 10.0 mi Calm Calm - 0.00 in Rain Light Rain
1:16 PM 69.8 °F 66.2 °F 88% 29.58 in 10.0 mi WSW 3.5 mph - 0.01 in Rain Light Rain
1:52 PM 73.0 °F 68.0 °F 84% 29.57 in 10.0 mi SSW 3.5 mph - 0.01 in   Overcast
2:09 PM 73.4 °F 66.2 °F 78% 29.57 in 10.0 mi South 5.8 mph - N/A   Scattered Clouds
2:52 PM 73.9 °F 66.0 °F 76% 29.57 in 10.0 mi Variable 3.5 mph - N/A   Scattered Clouds
3:11 PM 73.4 °F 64.4 °F 73% 29.57 in 10.0 mi South 6.9 mph - N/A   Mostly Cloudy
3:24 PM 73.4 °F 66.2 °F 78% 29.58 in 10.0 mi South 5.8 mph - N/A   Scattered Clouds
3:52 PM 75.0 °F 66.0 °F 73% 29.58 in 10.0 mi SSW 3.5 mph - N/A   Scattered Clouds
4:52 PM 73.9 °F 64.9 °F 73% 29.60 in 10.0 mi SE 8.1 mph - N/A   Scattered Clouds
5:52 PM 71.1 °F 64.0 °F 78% 29.61 in 10.0 mi SSE 3.5 mph - N/A   Clear
6:52 PM 66.0 °F 64.9 °F 96% 29.64 in 10.0 mi Calm Calm - N/A   Partly Cloudy
7:09 PM 66.2 °F 64.4 °F 94% 29.65 in 10.0 mi SE 4.6 mph - N/A   Mostly Cloudy
7:34 PM 66.2 °F 64.4 °F 94% 29.65 in 10.0 mi SE 3.5 mph - N/A   Scattered Clouds
7:52 PM 66.0 °F 64.9 °F 96% 29.67 in 10.0 mi SE 3.5 mph - N/A   Clear
8:48 PM 64.4 °F 64.4 °F 100% 29.69 in 10.0 mi SSE 4.6 mph - N/A   Mostly Cloudy
8:52 PM 64.9 °F 64.0 °F 97% 29.69 in 10.0 mi SE 4.6 mph - N/A   Mostly Cloudy
9:36 PM 64.4 °F 64.4 °F 100% 29.70 in 9.0 mi SSE 5.8 mph - N/A   Overcast
9:52 PM 64.0 °F 64.0 °F 100% 29.71 in 9.0 mi Calm Calm - N/A   Mostly Cloudy
10:03 PM 64.4 °F 62.6 °F 94% 29.71 in 8.0 mi South 4.6 mph - N/A   Mostly Cloudy
10:52 PM 63.0 °F 63.0 °F 100% 29.72 in 8.0 mi Calm Calm - N/A   Partly Cloudy
11:23 PM 64.4 °F 62.6 °F 94% 29.72 in 10.0 mi WNW 5.8 mph - N/A   Overcast
11:52 PM 63.0 °F 62.1 °F 97% 29.73 in 10.0 mi WNW 3.5 mph - N/A   Overcast